When you browse on this site, cookies collect data to enhance your experience and personalize the content and advertising you see.
Visit our Privacy Policy to learn more. By continuing to use the site, you agree to this use of cookies and data.
  • In Spain
  • List of Countries
  • For 7 days
  • Water Temperature
  • Weather Map
  • Weather Widgets
  • user-avatar
    Login

    Hourly Weather Goiania

    Today, 28 February, Friday

    Time Temperature Precipitation Wind Pressure Humidity
    00:00 +24°C° 0 mm 1 mps 698 mmHg 89%
    01:00 +24°C° 0.2 mm 1 mps 698 mmHg 91%
    02:00 +23°C° 0.2 mm 1 mps 698 mmHg 92%
    03:00 +23°C° 0.2 mm 1 mps 698 mmHg 93%
    04:00 +23°C° 0.1 mm 1 mps 698 mmHg 93%
    05:00 +23°C° 0.1 mm 1 mps 698 mmHg 93%
    06:00 +23°C° 0.1 mm 1 mps 698 mmHg 93%
    07:00 +23°C° 0 mm 1 mps 698 mmHg 91%
    08:00 +24°C° 0 mm 1 mps 699 mmHg 88%
    09:00 +25°C° 0 mm 1 mps 700 mmHg 86%
    10:00 +26°C° 0 mm 1 mps 700 mmHg 81%
    11:00 +27°C° 0 mm 1 mps 700 mmHg 76%
    12:00 +28°C° 0 mm 1 mps 700 mmHg 71%
    13:00 +29°C° 0.1 mm 1 mps 699 mmHg 69%
    14:00 +30°C° 0.1 mm 1 mps 699 mmHg 67%
    15:00 +29°C° 0.1 mm 0 mps 698 mmHg 65%
    16:00 +28°C° 0.5 mm 0 mps 698 mmHg 71%
    17:00 +29°C° 0.5 mm 1 mps 697 mmHg 77%
    18:00 +28°C° 0.5 mm 1 mps 697 mmHg 83%
    19:00 +27°C° 0.1 mm 1 mps 697 mmHg 85%
    20:00 +25°C° 0.1 mm 1 mps 698 mmHg 87%
    21:00 +24°C° 0.1 mm 1 mps 698 mmHg 90%
    22:00 +24°C° 1.6 mm 1 mps 698 mmHg 91%
    23:00 +24°C° 1.6 mm 1 mps 698 mmHg 92%

    Tomorrow, 29 February, Saturday

    Time Temperature Precipitation Wind Pressure Humidity
    00:00 +23°C° 1.6 mm 1 mps 698 mmHg 93%
    01:00 +23°C° 0.7 mm 1 mps 698 mmHg 93%
    02:00 +23°C° 0.7 mm 1 mps 698 mmHg 93%
    03:00 +23°C° 0.7 mm 1 mps 698 mmHg 94%
    04:00 +23°C° 0.5 mm 1 mps 698 mmHg 94%
    05:00 +23°C° 0.5 mm 1 mps 698 mmHg 94%
    06:00 +23°C° 0.5 mm 1 mps 698 mmHg 94%
    07:00 +24°C° 0.7 mm 1 mps 699 mmHg 93%
    08:00 +25°C° 0.7 mm 1 mps 699 mmHg 91%
    09:00 +25°C° 0.7 mm 1 mps 700 mmHg 89%
    10:00 +26°C° 1.2 mm 1 mps 700 mmHg 88%
    11:00 +27°C° 1.2 mm 1 mps 699 mmHg 86%
    12:00 +27°C° 1.2 mm 2 mps 699 mmHg 84%
    13:00 +27°C° 0.3 mm 2 mps 698 mmHg 84%
    14:00 +27°C° 0.3 mm 2 mps 698 mmHg 85%
    15:00 +27°C° 0.3 mm 2 mps 697 mmHg 85%
    16:00 +26°C° 0.7 mm 2 mps 697 mmHg 86%
    17:00 +26°C° 0.7 mm 1 mps 697 mmHg 88%
    18:00 +25°C° 0.7 mm 1 mps 697 mmHg 90%
    19:00 +24°C° 0.8 mm 1 mps 697 mmHg 90%
    20:00 +24°C° 0.8 mm 1 mps 698 mmHg 91%
    21:00 +24°C° 0.8 mm 1 mps 698 mmHg 92%
    22:00 +23°C° 0.6 mm 1 mps 698 mmHg 93%
    23:00 +23°C° 0.6 mm 1 mps 698 mmHg 94%

    Day after tomorrow, 1 March, Sunday

    Time Temperature Precipitation Wind Pressure Humidity
    00:00 +23°C° 0.6 mm 1 mps 698 mmHg 95%
    01:00 +23°C° 0.2 mm 1 mps 698 mmHg 95%
    02:00 +23°C° 0.2 mm 1 mps 697 mmHg 95%
    03:00 +22°C° 0.2 mm 1 mps 697 mmHg 95%
    04:00 +20°C° 0.3 mm 0 mps 697 mmHg 95%
    05:00 +20°C° 0.3 mm 0 mps 697 mmHg 95%
    06:00 +20°C° 0.3 mm 0 mps 697 mmHg 95%
    07:00 +21°C° 0.4 mm 0 mps 697 mmHg 94%
    08:00 +23°C° 0.4 mm 1 mps 698 mmHg 94%
    09:00 +24°C° 0.4 mm 1 mps 698 mmHg 93%
    10:00 +24°C° 0.9 mm 1 mps 698 mmHg 93%
    11:00 +24°C° 0.9 mm 2 mps 698 mmHg 92%
    12:00 +24°C° 0.9 mm 3 mps 698 mmHg 92%
    13:00 +25°C° 0.2 mm 3 mps 698 mmHg 88%
    14:00 +26°C° 0.2 mm 3 mps 697 mmHg 84%
    15:00 +27°C° 0.2 mm 3 mps 697 mmHg 80%
    16:00 +27°C° 0.3 mm 2 mps 697 mmHg 82%
    17:00 +26°C° 0.3 mm 2 mps 696 mmHg 85%
    18:00 +26°C° 0.3 mm 2 mps 696 mmHg 88%
    19:00 +25°C° 0.1 mm 1 mps 696 mmHg 90%
    20:00 +24°C° 0.1 mm 1 mps 697 mmHg 91%
    21:00 +23°C° 0.1 mm 1 mps 697 mmHg 93%
    22:00 +22°C° 0 mm 1 mps 697 mmHg 93%
    23:00 +22°C° 0 mm 1 mps 697 mmHg 93%

    2 March, Monday

    Time Temperature Precipitation Wind Pressure Humidity
    00:00 +22°C° 0 mm 1 mps 697 mmHg 94%
    01:00 +22°C° 0 mm 1 mps 696 mmHg 94%
    02:00 +22°C° 0 mm 1 mps 696 mmHg 94%
    03:00 +21°C° 0 mm 1 mps 696 mmHg 94%
    04:00 +21°C° 0 mm 1 mps 696 mmHg 95%
    05:00 +21°C° 0 mm 1 mps 696 mmHg 95%
    06:00 +21°C° 0 mm 1 mps 696 mmHg 95%
    07:00 +21°C° 0 mm 2 mps 697 mmHg 92%
    08:00 +24°C° 0 mm 2 mps 697 mmHg 89%
    09:00 +25°C° 0 mm 2 mps 698 mmHg 86%
    10:00 +26°C° 1.1 mm 3 mps 698 mmHg 85%
    11:00 +26°C° 1.1 mm 3 mps 697 mmHg 85%
    12:00 +27°C° 1.1 mm 3 mps 697 mmHg 84%
    13:00 +27°C° 1.2 mm 3 mps 697 mmHg 84%
    14:00 +27°C° 1.2 mm 3 mps 696 mmHg 84%
    15:00 +28°C° 1.2 mm 3 mps 696 mmHg 83%
    16:00 +27°C° 0.7 mm 2 mps 695 mmHg 85%
    17:00 +27°C° 0.7 mm 1 mps 695 mmHg 87%
    18:00 +26°C° 0.7 mm 1 mps 695 mmHg 89%
    19:00 +25°C° 0.8 mm 1 mps 695 mmHg 90%
    20:00 +22°C° 0.8 mm 0 mps 696 mmHg 91%
    21:00 +21°C° 0.8 mm 0 mps 696 mmHg 92%
    22:00 +20°C° 0.1 mm 0 mps 696 mmHg 93%
    23:00 +20°C° 0.1 mm 0 mps 696 mmHg 93%

    3 March, Tuesday

    Time Temperature Precipitation Wind Pressure Humidity
    00:00 +20°C° 0.1 mm 0 mps 696 mmHg 94%
    01:00 +20°C° 0 mm 0 mps 696 mmHg 94%
    02:00 +19°C° 0 mm 0 mps 695 mmHg 94%
    03:00 +19°C° 0 mm 0 mps 695 mmHg 95%
    04:00 +21°C° 0 mm 1 mps 695 mmHg 95%
    05:00 +21°C° 0 mm 1 mps 695 mmHg 95%
    06:00 +21°C° 0 mm 1 mps 695 mmHg 95%
    07:00 +22°C° 0 mm 1 mps 696 mmHg 92%
    08:00 +24°C° 0 mm 2 mps 697 mmHg 90%
    09:00 +25°C° 0 mm 2 mps 698 mmHg 87%
    10:00 +26°C° 0.4 mm 2 mps 698 mmHg 83%
    11:00 +27°C° 0.4 mm 3 mps 697 mmHg 80%
    12:00 +28°C° 0.4 mm 3 mps 697 mmHg 76%
    13:00 +28°C° 0.9 mm 3 mps 697 mmHg 78%
    14:00 +28°C° 0.9 mm 3 mps 696 mmHg 80%
    15:00 +28°C° 0.9 mm 2 mps 696 mmHg 82%
    16:00 +27°C° 0.9 mm 2 mps 696 mmHg 85%
    17:00 +27°C° 0.9 mm 1 mps 696 mmHg 87%
    18:00 +26°C° 0.9 mm 1 mps 696 mmHg 90%
    19:00 +23°C° 0.8 mm 0 mps 696 mmHg 91%
    20:00 +22°C° 0.8 mm 0 mps 696 mmHg 92%
    21:00 +21°C° 0.8 mm 0 mps 696 mmHg 93%
    22:00 +21°C° 0.3 mm 0 mps 697 mmHg 93%
    23:00 +21°C° 0.3 mm 0 mps 697 mmHg 93%

    4 March, Wednesday

    Time Temperature Precipitation Wind Pressure Humidity
    00:00 +20°C° 0.3 mm 0 mps 697 mmHg 93%
    01:00 +20°C° 0.3 mm 0 mps 697 mmHg 94%
    02:00 +20°C° 0.3 mm 0 mps 696 mmHg 95%
    03:00 +22°C° 0.3 mm 1 mps 696 mmHg 95%
    04:00 +22°C° 0.1 mm 1 mps 696 mmHg 95%
    05:00 +21°C° 0.1 mm 1 mps 696 mmHg 95%
    06:00 +21°C° 0.1 mm 1 mps 697 mmHg 96%
    07:00 +23°C° 0 mm 1 mps 697 mmHg 93%
    08:00 +24°C° 0 mm 2 mps 698 mmHg 91%
    09:00 +25°C° 0 mm 2 mps 699 mmHg 88%
    10:00 +27°C° 0.2 mm 2 mps 699 mmHg 84%
    11:00 +28°C° 0.2 mm 2 mps 699 mmHg 79%
    12:00 +29°C° 0.2 mm 2 mps 699 mmHg 74%
    13:00 +29°C° 0.6 mm 2 mps 698 mmHg 76%
    14:00 +29°C° 0.6 mm 2 mps 697 mmHg 77%
    15:00 +29°C° 0.6 mm 2 mps 697 mmHg 79%
    16:00 +28°C° 0.6 mm 2 mps 697 mmHg 81%
    17:00 +28°C° 0.6 mm 1 mps 697 mmHg 84%
    18:00 +27°C° 0.6 mm 1 mps 696 mmHg 86%
    19:00 +26°C° 0.2 mm 1 mps 697 mmHg 88%
    20:00 +23°C° 0.2 mm 0 mps 697 mmHg 90%
    21:00 +22°C° 0.2 mm 0 mps 697 mmHg 92%
    22:00 +21°C° 0 mm 0 mps 698 mmHg 93%
    23:00 +21°C° 0 mm 0 mps 698 mmHg 93%
    Show more